Location: *
(40.7190°N, 4.2480°W)
Time: 03:55:56
(UTC+00:00)

DMSP B5D1-3 - Pass Details

Date: 18 February 2020
Orbit: 768 x 780 km, 98.5° (Epoch: 29 March)

Event Time Altitude Azimuth Distance (km) Brightness Sun altitude
Rises 06:15:13 0° 170° (S) 3,223 8.0 -10.6°
Reaches altitude 10° 06:17:31 10° 172° (S) 2,300 7.2 -10.2°
Maximum altitude 06:22:34 73° 258° (WSW) 806 4.5 -9.2°
Drops below altitude 10° 06:27:41 10° 343° (NNW) 2,319 6.7 -8.3°
Sets 06:30:01 0° 345° (NNW) 3,251 7.5 -7.8°
